CW5619 Weather Reports


time (UTC)temp
F
wind
direction
speed
knots
gust
knots
rain 1hr
in
rain 24hr
in
rain mn
in
humidity
%
barometer
mb
20260903033903 88 114 1.7 6.1 0.00 0.00 0.00 46 1014.0
20260903031904 88 80 1.7 2.6 0.00 0.00 0.00 43 1013.6
20260903030902 89 130 0.9 2.6 0.00 0.00 0.00 42 1013.5
20260903030402 89 94 0.0 2.6 0.00 0.00 0.00 43 1013.4
20260903025903 89 103 0.9 2.6 0.00 0.00 0.00 42 1013.4
20260903025402 89 109 0.9 1.7 0.00 0.00 0.00 41 1013.4
20260903024403 90 99 0.9 1.7 0.00 0.00 0.00 40 1013.3
20260903023402 90 121 0.0 1.7 0.00 0.00 0.00 38 1013.2
20260903022903 90 131 0.0 2.6 0.00 0.00 0.00 38 1013.2
20260903022403 90 182 0.0 2.6 0.00 0.00 0.00 38 1013.2
20260903021403 90 168 0.0 2.6 0.00 0.00 0.00 39 1013.1
20260903020903 90 131 0.9 2.6 0.00 0.00 0.00 42 1013.1
20260903020403 90 117 1.7 2.6 0.00 0.00 0.00 43 1013.2
20260903015403 91 93 0.9 1.7 0.00 0.00 0.00 40 1013.1
20260903014903 92 98 0.9 1.7 0.00 0.00 0.00 37 1013.0
20260903014403 92 125 0.0 1.7 0.00 0.00 0.00 35 1013.1
20260903013902 92 238 0.0 1.7 0.00 0.00 0.00 35 1013.0
20260903013402 92 238 0.0 2.6 0.00 0.00 0.00 34 1012.9
20260903012903 93 235 1.7 2.6 0.00 0.00 0.00 35 1012.9
20260903012403 93 274 0.9 1.7 0.00 0.00 0.00 34 1012.9
20260903011903 93 280 0.0 1.7 0.00 0.00 0.00 34 1012.8
20260903011403 93 251 0.9 4.3 0.00 0.00 0.00 34 1012.8
20260903005902 93 233 1.7 4.3 0.00 0.00 0.00 34 1012.8
20260903005402 93 250 1.7 5.2 0.00 0.00 0.00 34 1012.8
20260903004402 93 230 1.7 2.6 0.00 0.00 0.00 37 1012.8
20260903003903 94 184 0.9 2.6 0.00 0.00 0.00 38 1012.9
20260903003403 94 231 0.9 4.3 0.00 0.00 0.00 39 1013.1
20260903001902 94 242 0.9 5.2 0.00 0.00 0.00 39 1013.0
20260903001403 94 307 1.7 5.2 0.00 0.00 0.00 38 1013.1
20260903000403 94 255 0.9 5.2 0.00 0.00 0.00 38 1013.0
20260902235403 94 335 0.9 2.6 0.00 0.00 0.00 38 1013.1
20260902234902 94 232 0.0 2.6 0.00 0.00 0.00 38 1013.1
20260902234403 94 335 0.0 2.6 0.00 0.00 0.00 38 1013.1
20260902232402 94 327 1.7 5.2 0.00 0.00 0.00 38 1013.1
20260902230902 95 276 0.9 2.6 0.00 0.00 0.00 36 1013.2
20260902224903 95 319 0.9 4.3 0.00 0.00 0.00 36 1013.5
20260902224403 95 204 0.9 4.3 0.00 0.00 0.00 36 1013.5
20260902223902 96 278 0.9 5.2 0.00 0.00 0.00 35 1013.5
20260902223403 95 165 1.7 5.2 0.00 0.00 0.00 35 1013.6
20260902222403 96 208 1.7 7.0 0.00 0.00 0.00 36 1013.7
20260902221903 96 2 1.7 6.1 0.00 0.00 0.00 36 1013.7
20260902220902 96 354 1.7 7.0 0.00 0.00 0.00 37 1013.8
20260902220403 96 280 2.6 7.0 0.00 0.00 0.00 36 1014.0
20260902215406 96 227 1.7 7.8 0.00 0.00 0.00 37 1014.1
20260902214902 96 246 0.9 8.7 0.00 0.00 0.00 38 1014.2
20260902214403 97 215 3.5 8.7 0.00 0.00 0.00 37 1014.3
20260902213903 98 31 1.7 8.7 0.00 0.00 0.00 37 1014.2
20260902213402 98 224 2.6 8.7 0.00 0.00 0.00 36 1014.0
20260902212902 98 241 2.6 7.0 0.00 0.00 0.00 38 1014.2
20260902212403 99 318 2.6 7.0 0.00 0.00 0.00 36 1014.2
20260902211903 99 240 1.7 7.0 0.00 0.00 0.00 37 1014.3
20260902211402 98 124 2.6 7.0 0.00 0.00 0.00 37 1014.4
20260902210902 98 231 2.6 7.0 0.00 0.00 0.00 36 1014.4
20260902210404 98 10 1.7 7.8 0.00 0.00 0.00 35 1014.5
20260902205403 98 218 1.7 7.8 0.00 0.00 0.00 37 1014.6
20260902204903 98 41 4.3 7.8 0.00 0.00 0.00 37 1014.6
20260902204403 98 238 1.7 7.8 0.00 0.00 0.00 37 1014.7
20260902203903 97 247 2.6 4.3 0.00 0.00 0.00 39 1014.8
20260902203411 98 184 2.6 6.1 0.00 0.00 0.00 37 1014.7
20260902202903 98 280 1.7 7.0 0.00 0.00 0.00 36 1014.8
20260902202402 98 10 2.6 7.0 0.00 0.00 0.00 37 1014.8
20260902201402 97 198 1.7 10.4 0.00 0.00 0.00 37 1014.9
20260902195902 97 229 1.7 5.2 0.00 0.00 0.00 38 1015.3
20260902195403 98 35 1.7 5.2 0.00 0.00 0.00 37 1015.3
20260902194903 97 324 1.7 6.1 0.00 0.00 0.00 39 1015.4
20260902193903 97 191 1.7 4.3 0.00 0.00 0.00 38 1015.8
20260902193403 97 242 1.7 7.0 0.00 0.00 0.00 38 1015.8
20260902192902 96 198 1.7 7.8 0.00 0.00 0.00 38 1015.8
20260902192404 96 240 2.6 7.8 0.00 0.00 0.00 39 1015.9
20260902191403 95 352 0.9 5.2 0.00 0.00 0.00 41 1016.1
20260902190407 95 277 2.6 5.2 0.00 0.00 0.00 42 1016.3
20260902183902 94 222 1.7 7.8 0.00 0.00 0.00 43 1016.6
20260902183403 95 231 1.7 6.1 0.00 0.00 0.00 41 1016.7
20260902181903 94 224 0.9 7.8 0.00 0.00 0.00 42 1017.0
20260902181403 93 234 1.7 10.4 0.00 0.00 0.00 44 1017.0
20260902180903 93 228 3.5 10.4 0.00 0.00 0.00 43 1017.1
20260902180402 94 347 0.9 4.3 0.00 0.00 0.00 43 1017.1
20260902173903 92 236 1.7 4.3 0.00 0.00 0.00 44 1017.1
20260902173403 91 26 1.7 4.3 0.00 0.00 0.00 45 1017.1
20260902172903 91 235 1.7 2.6 0.00 0.00 0.00 45 1017.1
20260902171902 92 233 0.9 2.6 0.00 0.00 0.00 45 1017.2
20260902171403 92 303 0.9 7.0 0.00 0.00 0.00 45 1017.2
20260902170902 91 15 0.9 7.0 0.00 0.00 0.00 46 1017.2
20260902164402 90 71 0.0 2.6 0.00 0.00 0.00 47 1017.1
20260902162403 88 203 0.9 2.6 0.00 0.00 0.00 51 1017.2
20260902161907 88 187 0.9 2.6 0.00 0.00 0.00 51 1017.3
20260902160903 87 150 0.9 2.6 0.00 0.00 0.00 51 1017.2
20260902160403 88 151 0.9 2.6 0.00 0.00 0.00 52 1017.2
20260902155403 87 193 0.0 2.6 0.00 0.00 0.00 53 1017.2
20260902154903 87 56 0.9 2.6 0.00 0.00 0.00 53 1017.2
20260902154403 86 72 0.9 2.6 0.00 0.00 0.00 54 1017.2
20260902153902 86 107 0.0 2.6 0.00 0.00 0.00 55 1017.2
20260902153403 85 81 0.9 2.6 0.00 0.00 0.00 55 1017.2
20260902152403 84 174 0.9 2.6 0.00 0.00 0.00 57 1017.1
20260902151904 84 98 0.9 2.6 0.00 0.00 0.00 57 1017.0
20260902150903 83 119 0.9 2.6 0.00 0.00 0.00 59 1017.0
20260902150402 83 72 0.9 2.6 0.00 0.00 0.00 60 1017.0
20260902145419 83 102 0.9 2.6 0.00 0.00 0.00 61 1016.9
20260902144903 82 124 1.7 2.6 0.00 0.00 0.00 62 1017.0
20260902143903 81 108 0.0 2.6 0.00 0.00 0.00 65 1017.0
20260902143403 80 105 0.9 1.7 0.00 0.00 0.00 67 1017.0
20260902141403 78 115 0.0 0.9 0.00 0.00 0.00 72 1016.9
20260902140903 77 78 0.0 0.0 0.00 0.00 0.00 74 1016.9
20260902133902 75 78 0.0 1.7 0.00 0.00 0.00 77 1016.6
20260902133402 74 78 0.9 1.7 0.00 0.00 0.00 78 1016.6
20260902132903 74 82 0.0 1.7 0.00 0.00 0.00 77 1016.4
20260902132402 74 101 0.0 0.9 0.00 0.00 0.00 77 1016.4
20260902131903 74 101 0.0 0.9 0.00 0.00 0.00 77 1016.4
20260902131402 74 101 0.0 0.9 0.00 0.00 0.00 77 1016.3
20260902130902 74 101 0.0 0.0 0.00 0.00 0.00 77 1016.3
20260902130403 74 101 0.0 0.0 0.00 0.00 0.00 77 1016.3
20260902125903 74 101 0.0 0.0 0.00 0.00 0.00 78 1016.2
20260902125403 74 101 0.0 0.9 0.00 0.00 0.00 78 1016.2
20260902124903 74 101 0.0 0.9 0.00 0.00 0.00 78 1016.2
20260902124403 74 101 0.0 0.9 0.00 0.00 0.00 78 1016.1
20260902123903 74 101 0.0 0.9 0.00 0.00 0.00 77 1016.1
20260902123403 74 101 0.0 0.0 0.00 0.00 0.00 77 1016.0
20260902122903 74 101 0.0 0.0 0.00 0.00 0.00 77 1016.0
20260902122403 74 101 0.0 0.0 0.00 0.00 0.00 77 1016.0
20260902121403 75 101 0.0 0.0 0.00 0.00 0.00 76 1016.0
20260902120903 75 101 0.0 0.0 0.00 0.00 0.00 76 1016.0
20260902115903 75 101 0.0 0.9 0.00 0.00 0.00 76 1015.9
20260902115403 75 125 0.0 0.9 0.00 0.00 0.00 76 1015.8
20260902114903 75 125 0.0 0.0 0.00 0.00 0.00 75 1015.8
20260902113903 75 125 0.0 0.0 0.00 0.00 0.00 75 1015.8
20260902113403 75 125 0.0 0.9 0.00 0.00 0.00 75 1015.8
20260902112903 75 125 0.0 0.9 0.00 0.00 0.00 75 1015.8
20260902112403 76 130 0.0 0.9 0.00 0.00 0.00 74 1015.8
20260902111403 76 163 0.0 2.6 0.00 0.00 0.00 75 1015.8
20260902110903 76 172 0.0 2.6 0.00 0.00 0.00 76 1015.7
20260902110403 76 192 0.9 1.7 0.00 0.00 0.00 76 1015.8
20260902105903 76 112 0.0 0.9 0.00 0.00 0.00 76 1015.7
20260902105403 76 112 0.0 0.9 0.00 0.00 0.00 75 1015.7
20260902104903 76 112 0.0 0.9 0.00 0.00 0.00 74 1015.7
20260902104402 76 112 0.0 0.9 0.00 0.00 0.00 74 1015.7
20260902103903 76 182 0.0 0.0 0.00 0.00 0.00 74 1015.8
20260902103402 76 182 0.0 0.0 0.00 0.00 0.00 74 1015.9
20260902102403 76 182 0.0 2.6 0.00 0.00 0.00 75 1016.0
20260902101904 76 63 0.0 0.9 0.00 0.00 0.00 74 1015.8
20260902101402 76 63 0.0 0.9 0.00 0.00 0.00 74 1015.8
20260902100902 76 63 0.0 0.9 0.00 0.00 0.00 73 1015.7
20260902100403 77 63 0.0 0.9 0.00 0.00 0.00 73 1015.8
20260902095902 76 63 0.0 0.9 0.00 0.00 0.00 73 1015.8
20260902095402 76 63 0.0 0.9 0.00 0.00 0.00 73 1015.7
20260902094903 76 63 0.0 0.9 0.00 0.00 0.00 73 1015.7
20260902093903 77 63 0.0 0.9 0.00 0.00 0.00 73 1015.7
20260902093404 77 63 0.0 1.7 0.00 0.00 0.00 73 1015.8
20260902092903 77 63 0.9 1.7 0.00 0.00 0.00 73 1015.7
20260902092403 77 67 0.0 1.7 0.00 0.00 0.00 73 1015.7
20260902091904 76 62 0.0 0.0 0.00 0.00 0.00 74 1015.9
20260902091403 76 74 0.0 0.9 0.00 0.00 0.00 73 1015.8
20260902090902 77 61 0.0 0.9 0.00 0.00 0.00 73 1015.7
20260902085903 77 61 0.0 1.7 0.00 0.00 0.00 72 1015.7
20260902085402 77 61 0.0 1.7 0.00 0.00 0.00 72 1015.7
20260902084903 77 51 0.0 1.7 0.00 0.00 0.00 71 1015.7
20260902084403 78 5 0.0 1.7 0.00 0.00 0.00 70 1015.7
20260902083903 78 294 0.0 1.7 0.00 0.00 0.00 69 1015.7
20260902083403 78 256 0.9 1.7 0.00 0.00 0.00 69 1015.8
20260902082902 78 268 0.9 1.7 0.00 0.00 0.00 69 1015.7
20260902082402 78 268 0.0 0.0 0.00 0.00 0.00 68 1015.8
20260902081903 78 268 0.0 0.0 0.00 0.00 0.00 68 1015.7
20260902081403 78 268 0.0 2.6 0.00 0.00 0.00 67 1015.8
20260902080403 78 243 1.7 2.6 0.00 0.00 0.00 69 1015.7
20260902075903 78 99 0.0 0.0 0.00 0.00 0.00 69 1015.5
20260902075403 78 99 0.0 0.0 0.00 0.00 0.00 69 1015.4
20260902074903 78 72 0.0 0.0 0.00 0.00 0.00 69 1015.4
20260902074403 78 78 0.0 0.0 0.00 0.00 0.00 68 1015.3
20260902073902 78 82 0.0 1.7 0.00 0.00 0.00 68 1015.4
20260902073403 78 58 0.0 1.7 0.00 0.00 0.00 68 1015.5
20260902072903 78 70 0.0 1.7 0.00 0.00 0.00 68 1015.5
20260902071903 79 51 0.9 1.7 0.00 0.00 0.00 67 1015.5
20260902071402 79 66 0.0 1.7 0.00 0.00 0.00 66 1015.5
20260902070403 79 94 0.9 1.7 0.00 0.00 0.00 65 1015.5
20260902065903 79 63 0.0 1.7 0.00 0.00 0.00 65 1015.4
20260902065403 79 63 0.0 1.7 0.00 0.00 0.00 64 1015.4
20260902064902 79 66 0.9 1.7 0.00 0.00 0.00 65 1015.3
20260902064403 79 115 0.0 1.7 0.00 0.00 0.00 65 1015.3
20260902063903 80 68 0.0 1.7 0.00 0.00 0.00 64 1015.3
20260902063403 80 49 0.0 1.7 0.00 0.00 0.00 64 1015.2
20260902062403 80 74 0.9 1.7 0.00 0.00 0.00 64 1015.3
20260902061903 80 151 0.0 2.6 0.00 0.00 0.00 64 1015.3
20260902061403 80 33 0.0 2.6 0.00 0.00 0.00 63 1015.3
20260902060403 80 38 0.9 2.6 0.00 0.00 0.00 64 1015.2
20260902055903 80 58 0.9 2.6 0.00 0.00 0.00 63 1015.2
20260902055403 81 37 0.0 1.7 0.00 0.00 0.00 63 1015.2
20260902054903 81 37 0.0 1.7 0.00 0.00 0.00 62 1015.3
20260902054403 81 41 0.9 1.7 0.00 0.00 0.00 62 1015.3
20260902053903 81 46 0.0 0.9 0.00 0.00 0.00 62 1015.3
20260902053402 81 46 0.0 0.9 0.00 0.00 0.00 62 1015.3
20260902052903 81 46 0.0 1.7 0.00 0.00 0.00 62 1015.3
20260902052403 82 46 0.0 1.7 0.00 0.00 0.00 61 1015.4
20260902051903 82 46 0.0 1.7 0.00 0.00 0.00 61 1015.4
20260902051403 82 41 0.0 1.7 0.00 0.00 0.00 60 1015.4
20260902050903 82 50 0.0 1.7 0.00 0.00 0.00 60 1015.4
20260902050403 82 57 0.0 1.7 0.00 0.00 0.00 59 1015.5
20260902045903 82 62 0.9 1.7 0.00 0.00 0.00 59 1015.5
20260902045403 82 45 0.0 1.7 0.00 0.00 0.00 59 1015.5
20260902044903 82 79 0.0 1.7 0.00 0.00 0.00 59 1015.5
20260902044403 82 79 0.0 1.7 0.00 0.00 0.00 59 1015.4
20260902042903 83 98 0.0 0.0 0.00 0.00 0.00 59 1015.5
20260902042403 83 86 0.0 0.0 0.00 0.00 0.00 59 1015.4
20260902041903 83 94 0.0 0.0 0.00 0.00 0.00 58 1015.4
20260902041403 83 72 0.0 0.0 0.00 0.00 0.00 56 1015.3
20260902040903 83 61 0.0 0.0 0.00 0.00 0.00 57 1015.3
20260902040403 83 67 0.0 0.0 0.00 0.00 0.00 58 1015.2
20260902035403 84 69 0.0 0.0 0.00 0.00 0.00 58 1015.0
20260902034903 84 69 0.0 0.0 0.00 0.00 0.00 57 1015.0
20260902034403 84 90 0.0 0.0 0.00 0.00 0.00 56 1014.9